Location: Newark
(51.3318°N, 0.0053°E)
Time: 11:04:29
(UTC+00:00)

MOZHAYETS 4 - Pass Details

Date: 30 June 2022
Orbit: 660 x 679 km, 98.2° (Epoch: 11 August)

Event Time Altitude Azimuth Distance (km) Brightness Sun altitude
Exits shadow 02:05:02 - 162° (SSE) 2,597 10.3 -10.9°
Reaches altitude 10° 02:06:13 10° 162° (SSE) 2,110 9.9 -10.8°
Maximum altitude 02:10:51 86° 75° (ENE) 684 7.8 -10.4°
Drops below altitude 10° 02:15:29 10° 346° (NNW) 2,116 11.0 -10.1°
Sets 02:17:43 0° 346° (NNW) 3,032 11.8 -9.9°
